Lexington Weather

Lexington, Massachusetts, USA

59°F
10/23/2020 5:53pm 
  • Lexington Conditions: Overcast
  • Temperature: 59.2°F / 15.1°CColder 2.3°F than last hour.
  • Dew Point: 53.4°FDecreased 1.8°Fsince last hour.
  • Relative Humidity: 81%Increased 1.0% since last hour.
  • Wind: Wind from SSE SSE Calm, 10-min avg: 1 mph, gust: 4 mph
  • Barometer: 30.08 inFalling 0.02  inHg/hr Falling Slowly
  • Visibility: 10 miles
  • Rain Today: 0.00 in
  •   

Regional Weather Roundup
for Boston / Norton, MA

        
000
ASUS41 KBOX 200804
RWRBOX

REGIONAL WEATHER ROUNDUP
NATIONAL WEATHER SERVICE BOSTON/NORTON MA
400 AM EDT TUE OCT 20 2020

NOTE:  "FAIR" INDICATES FEW OR NO CLOUDS BELOW 12,000 FEET WITH NO 
SIGNIFICANT WEATHER AND/OR OBSTRUCTIONS TO VISIBILITY.

MAZALL-200900-
EASTERN MASSACHUSETTS
  
CITY           SKY/WX    TMP DP  RH WIND       PRES   REMARKS
BOSTON         MOCLDY    50  47  89 S3        30.28F                  
BEVERLY        MOCLDY    49  48  97 SE3       30.26F                  
LAWRENCE       PTCLDY    51  49  92 SE3       30.28F                  
BEDFORD        PTCLDY    50  49  96 SE3       30.25F                  
BLUE HILL        N/A     50  49  96 S12       30.26F                  
NORWOOD        FOG       44  41  89 CALM      30.26F VSB 1            
MARSHFIELD     PTCLDY    45  45 100 CALM      30.27F                  
PLYMOUTH       PTCLDY    43  41  93 SE3       30.28F                  
TAUNTON        PTCLDY    42  40  92 CALM      30.27F                  
NEW BEDFORD    PTCLDY    43  41  93 CALM      30.27F                  
$$

MAZALL-200900-
CAPE COD AND THE ISLANDS
  
CITY           SKY/WX    TMP DP  RH WIND       PRES   REMARKS
FALMOUTH       PTCLDY    41  41 100 CALM      30.29F                  
HYANNIS        MOCLDY    45  43  93 N3        30.28R                  
CHATHAM        MOCLDY    53  51  93 CALM      30.29S                  
PROVINCETOWN   FOG       43  43 100 CALM      30.30S VSB 3/4          
NANTUCKET      MOCLDY   N/A N/A N/A E7        30.28F                  
MARTHAS VNYRD  FOG       44  43  96 CALM      30.28F VSB 1/2          
$$
 
MAZALL-200900-
CENTRAL AND WESTERN MASSACHUSETTS
  
CITY           SKY/WX    TMP DP  RH WIND       PRES   REMARKS
WORCESTER      MOCLDY    50  48  93 SW6       30.25F                  
FITCHBURG      MOCLDY    50  48  93 CALM      30.26F                  
ORANGE         CLOUDY    53  51  93 CALM      30.25F                  
SPRINGFIELD    MOCLDY    50  49  97 SE5       30.23F                  
WESTFIELD      CLOUDY    52  51  97 SE5       30.24F                  
NORTH ADAMS    CLOUDY    56  49  77 VRB3      30.21F                  
PITTSFIELD     CLOUDY    54  50  86 VRB6      30.21F                  
$$
 
RIZALL-200900-
RHODE ISLAND
  
CITY           SKY/WX    TMP DP  RH WIND       PRES   REMARKS
PROVIDENCE     PTCLDY    48  47  96 CALM      30.27F                  
NEWPORT        MOCLDY    50  50 100 CALM      30.27F FOG              
BLOCK ISLAND   PTCLDY    56  54  93 E5        30.27F                  
SMITHFIELD     FOG       46  46 100 CALM        N/A  VSB 1            
WESTERLY       MOCLDY    46  44  93 CALM      30.27F                  
$$
 
CTZALL-200900-
CONNECTICUT
  
CITY           SKY/WX    TMP DP  RH WIND       PRES   REMARKS
BRADLEY INTL   MOCLDY    51  49  92 W3        30.24F                  
HARTFORD       PTCLDY    50  48  93 CALM      30.25F FOG              
BRIDGEPORT     MOCLDY    57  55  93 SE3       30.25F                  
DANBURY        CLOUDY    48  47  96 CALM      30.26F                  
GROTON         PTCLDY    48  47  96 N5        30.26F                  
NEW HAVEN      PTCLDY    56  53  90 CALM      30.25F                  
CHESTER        FAIR      52  52 100 MISG      30.26F FOG              
MERIDEN        CLOUDY    48  46  93 CALM      30.25F                  
WILLIMANTIC    CLOUDY    45  43  93 CALM      30.27F                  
OXFORD         MOCLDY    54  54 100 S7        30.26F                  
$$

MEZ002-015-021-024-NHZ003-005-008-011-012-014-VTZ005-008-200900-
NORTHERN NEW ENGLAND
  
CITY           SKY/WX    TMP DP  RH WIND       PRES   REMARKS
PORTLAND ME    PTCLDY    49  49 100 CALM      30.27F                  
BANGOR ME      CLOUDY    49  46  90 S5        30.28F                  
CONCORD NH     PTCLDY    49  46  90 S6        30.25F                  
MANCHESTER NH  MOCLDY    52  48  86 SE6       30.24F                  
NASHUA NH      PTCLDY    50  50 100 CALM      30.26F                  
PORTSMOUTH NH  MOCLDY    50  48  95 SE3       30.25                   
JAFFREY NH     MOCLDY    47  45  93 CALM      30.25F                  
KEENE NH       CLOUDY    51  49  92 CALM      30.24F                  
BURLINGTON VT  CLOUDY    59  50  72 S17G29    30.11F                  
MT. WASHINGTON FOG       37  37 100 SW47G61     N/A  VSB 0   WCI  22  
$$

NYZ052-076-200900-
EASTERN NEW YORK
  
CITY           SKY/WX    TMP DP  RH WIND       PRES   REMARKS
ALBANY         LGT RAIN  55  53  93 S10G22    30.18F                  
NEW YORK CITY  CLOUDY    60  55  83 NE3       30.23F                  
$$
 
ANZALL-200900-
MARINE OBSERVATIONS
  
STATION/POSITION TIME  TEMP    WIND        PRES    VSBY  WAVE
                       AIR SEA DIR/SP/G                  HT/PER
                 (UTC) (F)     (DEG/KT/KT) (MB)    (MI)  (FT/S)
BOSTON BUOY      0750   56 58  160/  8/ 10 1024.1F         2/ 9
BUZZARDS BAY     0700          160/ 10/ 11 1026.3F
NANTUCKET SOUND  0750      61  140/  8/ 10   N/A           1/ 6
MASS BAY-STELLWA 0704   56 56  180/  8/ 10 1024.9R  1 7/8  3/ 8
ISLE OF SHOALS   NOT AVBL
S OF BLOCK IS    0726      63                N/A           3/ 8
$$

......................KEY.........................
  SKY/WX - SKY CONDITION/PRESENT WEATHER
  TMP    - TEMPERATURE IN FAHRENHEIT
  DWPT   - DEWPOINT IN FAHRENHEIT
  RH     - RELATIVE HUMIDITY IN PERCENT
  WIND   - DIRECTION AND SPEED IN MPH
  PRES   - MEAN SEA LEVEL PRESSURE IN INCHES OF HG
  WCI    - WIND CHILL INDEX
  VSB    - VISIBILITY IN MILES
  HX     - HEAT INDEX
  TC     - TEMPERATURE IN CELSIUS
  VRB    - VARIABLE WIND DIRECTION
  N/A    - NOT AVAILABLE
  
      

Other recent Regional Weather Roundups

Fri Oct 23, 5:05pm

Fri Oct 23, 4:04pm

Fri Oct 23, 3:04pm

Fri Oct 23, 2:05pm

Fri Oct 23, 1:04pm

Fri Oct 23, 12:04pm

Fri Oct 23, 11:04am

Fri Oct 23, 10:04am

Fri Oct 23, 9:04am

Fri Oct 23, 8:04am

Fri Oct 23, 7:04am

Fri Oct 23, 6:04am

Fri Oct 23, 5:04am

Fri Oct 23, 4:04am

Fri Oct 23, 3:04am

Fri Oct 23, 2:04am

Fri Oct 23, 1:04am

Fri Oct 23, 12:04am

Thu Oct 22, 11:04pm

Thu Oct 22, 10:04pm

Thu Oct 22, 9:05pm

Thu Oct 22, 8:04pm

Thu Oct 22, 7:05pm

Thu Oct 22, 6:04pm

Thu Oct 22, 5:04pm

Thu Oct 22, 4:05pm

Thu Oct 22, 3:04pm

Thu Oct 22, 2:05pm

Thu Oct 22, 1:04pm

Thu Oct 22, 12:04pm

Thu Oct 22, 11:04am

Thu Oct 22, 10:05am

Thu Oct 22, 9:04am

Thu Oct 22, 8:05am

Thu Oct 22, 7:04am

Thu Oct 22, 6:04am

Thu Oct 22, 5:04am

Thu Oct 22, 4:04am

Thu Oct 22, 3:04am

Thu Oct 22, 2:04am

Thu Oct 22, 1:04am

Thu Oct 22, 12:04am

Wed Oct 21, 11:05pm

Wed Oct 21, 10:04pm

Wed Oct 21, 9:04pm

Wed Oct 21, 8:04pm

Wed Oct 21, 7:04pm

Wed Oct 21, 6:04pm

Wed Oct 21, 5:05pm

Wed Oct 21, 4:04pm

Wed Oct 21, 3:04pm

Wed Oct 21, 2:05pm

Wed Oct 21, 1:04pm

Wed Oct 21, 12:04pm

Wed Oct 21, 11:04am

Wed Oct 21, 10:04am

Wed Oct 21, 9:04am

Wed Oct 21, 8:04am

Wed Oct 21, 7:04am

Wed Oct 21, 6:04am

Wed Oct 21, 5:04am

Wed Oct 21, 4:04am

Wed Oct 21, 3:04am

Wed Oct 21, 2:04am

Wed Oct 21, 1:04am

Wed Oct 21, 12:04am

Tue Oct 20, 11:05pm

Tue Oct 20, 10:04pm

Tue Oct 20, 9:04pm

Tue Oct 20, 8:05pm

Tue Oct 20, 7:04pm

Tue Oct 20, 6:04pm

Tue Oct 20, 5:05pm

Tue Oct 20, 4:04pm

Tue Oct 20, 3:05pm

Tue Oct 20, 2:07pm

Tue Oct 20, 1:04pm

Tue Oct 20, 12:04pm

Tue Oct 20, 11:04am

Tue Oct 20, 10:05am

Tue Oct 20, 9:04am

Tue Oct 20, 8:04am

Tue Oct 20, 7:04am

Tue Oct 20, 6:04am

Tue Oct 20, 5:04am

Tue Oct 20, 3:04am

Tue Oct 20, 2:04am

Tue Oct 20, 1:04am

Tue Oct 20, 12:04am

Mon Oct 19, 11:04pm

Mon Oct 19, 10:04pm

Mon Oct 19, 9:04pm

Mon Oct 19, 8:04pm

Mon Oct 19, 7:04pm

Mon Oct 19, 6:04pm

Mon Oct 19, 5:04pm

Mon Oct 19, 4:04pm

Mon Oct 19, 3:04pm

Mon Oct 19, 2:04pm

Mon Oct 19, 1:05pm

Mon Oct 19, 12:04pm

Mon Oct 19, 11:04am

Mon Oct 19, 10:04am

Mon Oct 19, 9:04am

Mon Oct 19, 8:04am

Mon Oct 19, 7:04am

Mon Oct 19, 6:04am

Mon Oct 19, 5:04am

Mon Oct 19, 4:04am

Mon Oct 19, 3:04am

Mon Oct 19, 2:04am

Mon Oct 19, 1:04am

Mon Oct 19, 12:05am

Sun Oct 18, 11:04pm

Sun Oct 18, 10:04pm

Sun Oct 18, 9:04pm

Sun Oct 18, 8:04pm

Sun Oct 18, 7:05pm

Sun Oct 18, 6:04pm

Sun Oct 18, 5:05pm

Sun Oct 18, 4:05pm

Sun Oct 18, 3:04pm

Sun Oct 18, 2:05pm

Sun Oct 18, 1:04pm

Sun Oct 18, 12:04pm

Sun Oct 18, 11:04am

Sun Oct 18, 10:04am

Sun Oct 18, 9:04am

Sun Oct 18, 8:04am

Sun Oct 18, 7:04am

Sun Oct 18, 6:04am

Sun Oct 18, 5:04am

Sun Oct 18, 4:04am

Sun Oct 18, 3:04am

Sun Oct 18, 2:04am

Sun Oct 18, 1:04am

Sun Oct 18, 12:04am

Sat Oct 17, 11:05pm

Sat Oct 17, 10:04pm

Sat Oct 17, 9:04pm

Sat Oct 17, 8:04pm

Sat Oct 17, 7:04pm

Sat Oct 17, 6:04pm

Sat Oct 17, 5:05pm

Sat Oct 17, 4:04pm

Sat Oct 17, 3:04pm

Sat Oct 17, 2:05pm

Sat Oct 17, 1:05pm

Sat Oct 17, 12:04pm

Sat Oct 17, 11:05am

Sat Oct 17, 10:04am

Sat Oct 17, 9:04am

Sat Oct 17, 8:04am

Sat Oct 17, 7:04am

Sat Oct 17, 6:04am

Sat Oct 17, 5:04am

Sat Oct 17, 4:04am

Sat Oct 17, 3:04am

Sat Oct 17, 2:04am

Sat Oct 17, 1:05am

Sat Oct 17, 12:04am

Fri Oct 16, 11:05pm

Fri Oct 16, 10:04pm

Fri Oct 16, 9:05pm

Fri Oct 16, 8:04pm

Fri Oct 16, 7:05pm

Fri Oct 16, 6:04pm

Meta data:

ID: 1a0c3edc-f36c-4c24-b103-0ab1a3ea34fc
Link: https://api.weather.gov/products/1a0c3edc-f36c-4c24-b103-0ab1a3ea34fc